Weather History for Wright-Patt AFB, OH

Change the Weather History Date:

Tuesday, November 1, 2011

  Actual Average Record
Temperature  
Mean Temperature 46 °F -  
Max Temperature 61 °F 56 °F 78 °F (1999)
Min Temperature 32 °F 38 °F 28 °F (2002)
Degree Days  
Heating Degree Days 18    
Moisture  
Dew Point 35 °F    
Average Humidity 69    
Maximum Humidity 95    
Minimum Humidity 40    
Precipitation  
Precipitation 0.00 in - - ()
Sea Level Pressure  
Sea Level Pressure 30.25 in    
Wind  
Wind Speed 2 mph (SSW)    
Max Wind Speed 9 mph    
Max Gust Speed -    
Visibility 10 miles    
Events Fog    
Averages and records for this station are not official NWS values.
T = Trace of Precipitation, MM = Missing Value Source: NWS Daily Summary

Daily Weather History Graph

Daily Weather History Graph

Search for Another Location

Airport:

Trip Planner

Search our weather history database for the weather conditions in past years. The results will help you decide how hot, cold, wet, or windy it might be!

Date:

Astronomy

Nov. 01, 2011 Rise Set
Actual Time 8:04 AM EDT 6:34 PM EDT
Civil Twilight 7:36 AM EDT 7:02 PM EDT
Nautical Twilight 7:04 AM EDT 7:34 PM EDT
Astronomical Twilight 6:33 AM EDT 8:05 PM EDT
Moon 1:50 PM EDT (11/1) No Moon Set
Length of Visible Light 11h 25m
Length of Day
10h 29m
Waxing Crescent, 39% of the Moon is Illuminated
Nov 1
Waxing Crescent
Nov 2
First Quarter
Nov 10
Full
Nov 18
Last Quarter
Nov 25
New

Hourly Weather History & Observations

Time (EDT) Temp. Windchill Dew Point Humidity Pressure Visibility Wind Dir Wind Speed Gust Speed Precip Events Conditions
12:55 AM 36.3 °F - 33.8 °F 91% 30.20 in 10.0 mi Calm Calm - N/A   Clear
1:55 AM 34.3 °F 31.4 °F 32.7 °F 94% 30.21 in 10.0 mi NE 3.5 mph - N/A   Clear
2:55 AM 36.0 °F 33.3 °F 34.2 °F 93% 30.21 in 10.0 mi NW 3.5 mph - N/A   Clear
3:55 AM 33.4 °F - 31.8 °F 94% 30.22 in 10.0 mi Calm Calm - N/A   Clear
4:55 AM 34.9 °F - 32.5 °F 91% 30.23 in 10.0 mi Calm Calm - N/A   Clear
5:55 AM 32.0 °F - 29.8 °F 92% 30.24 in 10.0 mi Calm Calm - N/A   Clear
6:55 AM 33.6 °F - 32.2 °F 94% 30.25 in 10.0 mi Calm Calm - N/A   Clear
7:55 AM 32.4 °F - 31.1 °F 95% 30.27 in 10.0 mi Calm Calm - N/A Fog Shallow Fog
8:55 AM 34.7 °F 31.8 °F 33.1 °F 94% 30.29 in 10.0 mi SE 3.5 mph - N/A Fog Shallow Fog
9:55 AM 41.0 °F - 36.3 °F 83% 30.31 in 10.0 mi Calm Calm - N/A   Partly Cloudy
10:55 AM 46.2 °F - 37.8 °F 72% 30.30 in 10.0 mi Calm Calm - N/A   Partly Cloudy
11:55 AM 52.7 °F - 39.6 °F 61% 30.30 in 10.0 mi SW 4.6 mph - N/A   Partly Cloudy
12:55 PM 57.0 °F - 36.3 °F 46% 30.28 in 10.0 mi SSW 9.2 mph - N/A   Partly Cloudy
1:55 PM 58.5 °F - 34.9 °F 41% 30.27 in 10.0 mi SW 8.1 mph - N/A   Clear
2:55 PM 60.1 °F - 36.1 °F 41% 30.25 in 10.0 mi SW 6.9 mph - N/A   Clear
3:55 PM 61.3 °F - 36.5 °F 40% 30.24 in 10.0 mi South 5.8 mph - N/A   Clear
4:55 PM 61.5 °F - 37.2 °F 41% 30.24 in 10.0 mi South 9.2 mph - N/A   Clear
5:55 PM 58.8 °F - 36.9 °F 44% 30.24 in 10.0 mi South 9.2 mph - N/A   Clear
6:55 PM 55.0 °F - 35.1 °F 47% 30.24 in 10.0 mi South 5.8 mph - N/A   Clear
7:55 PM 50.2 °F - 36.1 °F 59% 30.25 in 10.0 mi SSE 4.6 mph - N/A   Clear
9:55 PM 48.2 °F - 34.3 °F 59% 30.25 in 10.0 mi Calm Calm - N/A   Clear
10:55 PM 48.2 °F - 34.3 °F 59% 30.25 in 10.0 mi Calm Calm - N/A   Clear
11:55 PM 46.8 °F - 35.1 °F 64% 30.25 in 10.0 mi Calm Calm - N/A   Clear